DW9313 Weather Reports


Display with metric or nautical units.
time (UTC)temp
F
wind
direction
speed
MPH
gust
MPH
rain 1hr
in
rain 24hr
in
rain mn
in
humidity
%
barometer
mb
20190423165733 61 162 5.0 9.0 0.00 0.04 0.01 73 993.4
20190423165232 61 169 5.0 8.0 0.00 0.04 0.01 72 993.4
20190423164732 61 184 5.0 9.0 0.00 0.04 0.01 71 993.5
20190423164232 61 150 4.0 7.0 0.00 0.04 0.01 72 993.5
20190423163732 61 228 5.0 9.0 0.00 0.04 0.01 73 993.5
20190423163232 61 175 6.0 12.0 0.00 0.04 0.01 71 993.5
20190423162732 62 174 5.0 12.0 0.00 0.04 0.01 70 993.5
20190423162232 61 186 5.0 12.0 0.00 0.04 0.01 71 993.5
20190423161733 61 186 7.0 12.0 0.00 0.04 0.01 71 993.6
20190423161232 61 168 7.0 12.0 0.00 0.04 0.01 74 993.6
20190423160733 61 205 6.0 14.0 0.00 0.04 0.01 74 993.5
20190423160233 61 199 7.0 14.0 0.00 0.04 0.01 75 993.6
20190423155733 61 160 7.0 14.0 0.00 0.04 0.01 74 993.7
20190423155233 61 181 9.0 14.0 0.00 0.04 0.01 74 993.7
20190423154733 61 160 8.0 14.0 0.00 0.04 0.01 74 993.7
20190423154233 61 170 9.0 15.0 0.00 0.04 0.01 73 993.8
20190423153733 62 160 8.0 14.0 0.00 0.04 0.01 74 993.8
20190423153233 61 187 7.0 14.0 0.00 0.04 0.01 75 993.8
20190423152733 62 152 9.0 14.0 0.00 0.04 0.01 73 993.7
20190423152233 62 191 9.0 14.0 0.00 0.04 0.01 73 993.6
20190423151734 62 151 7.0 14.0 0.00 0.04 0.01 73 993.6
20190423151233 62 167 8.0 15.0 0.00 0.04 0.01 73 993.6
20190423150733 62 159 7.0 14.0 0.00 0.04 0.01 74 993.7
20190423150233 62 146 8.0 14.0 0.00 0.04 0.01 73 993.7
20190423145733 62 174 9.0 14.0 0.00 0.04 0.01 74 993.7
20190423145233 61 172 7.0 14.0 0.00 0.04 0.01 75 993.7
20190423144733 61 139 10.0 15.0 0.00 0.04 0.01 74 993.7
20190423144234 61 157 9.0 15.0 0.00 0.04 0.01 74 993.8
20190423143734 61 151 11.0 20.0 0.00 0.04 0.01 74 993.8
20190423143234 61 133 11.0 18.0 0.00 0.04 0.01 74 993.8
20190423142733 61 159 9.0 14.0 0.00 0.04 0.01 74 993.8
20190423142233 61 142 11.0 20.0 0.00 0.04 0.01 74 993.9
20190423141734 61 117 12.0 21.0 0.00 0.04 0.01 74 993.9
20190423141234 61 154 10.0 18.0 0.00 0.04 0.01 73 994.0
20190423140734 61 122 10.0 18.0 0.00 0.04 0.01 74 994.0
20190423140233 61 135 11.0 20.0 0.00 0.04 0.01 73 994.0
20190423135736 61 144 10.0 20.0 0.00 0.04 0.01 73 994.1
20190423135233 61 145 9.0 15.0 0.00 0.04 0.01 73 994.1
20190423134734 61 126 10.0 20.0 0.00 0.04 0.01 74 994.2
20190423134234 61 132 12.0 16.0 0.00 0.04 0.01 72 994.2
20190423133734 61 132 9.0 18.0 0.00 0.04 0.01 74 994.3
20190423133234 61 127 11.0 20.0 0.00 0.04 0.01 73 994.2
20190423132734 61 142 10.0 16.0 0.00 0.04 0.01 72 994.2
20190423132234 61 120 13.0 20.0 0.00 0.04 0.01 71 994.1
20190423131734 61 135 13.0 20.0 0.00 0.04 0.01 70 994.1
20190423131234 61 135 11.0 20.0 0.00 0.04 0.01 71 994.2
20190423130734 61 155 11.0 16.0 0.00 0.04 0.01 70 994.2
20190423130234 61 126 11.0 18.0 0.00 0.04 0.01 71 994.2
20190423125734 62 129 12.0 21.0 0.00 0.04 0.01 68 994.2
20190423125234 62 140 13.0 22.0 0.00 0.04 0.01 68 994.2
20190423124735 62 120 11.0 21.0 0.00 0.04 0.01 68 994.2
20190423124234 62 128 10.0 18.0 0.00 0.04 0.01 68 994.2
20190423123735 62 111 15.0 22.0 0.00 0.04 0.01 66 994.2
20190423123234 63 135 13.0 20.0 0.00 0.04 0.01 66 994.2
20190423122734 62 127 12.0 25.0 0.00 0.04 0.01 66 994.2
20190423122235 63 144 13.0 20.0 0.00 0.04 0.01 65 994.3
20190423121735 63 109 12.0 22.0 0.00 0.04 0.01 63 994.3
20190423121235 63 110 14.0 25.0 0.00 0.04 0.01 62 994.4
20190423120734 64 114 13.0 22.0 0.00 0.04 0.01 64 994.3
20190423120235 63 101 14.0 23.0 0.00 0.04 0.01 63 994.3
20190423115734 63 102 14.0 26.0 0.00 0.04 0.01 62 994.3
20190423115235 63 92 14.0 25.0 0.00 0.04 0.01 64 994.3
20190423114735 63 110 16.0 25.0 0.00 0.04 0.01 64 994.3
20190423114235 63 109 15.0 25.0 0.00 0.04 0.01 64 994.4
20190423113735 63 102 13.0 23.0 0.00 0.04 0.01 63 994.4
20190423113235 63 108 14.0 25.0 0.00 0.04 0.01 63 994.5
20190423112735 63 105 16.0 22.0 0.00 0.04 0.01 63 994.6
20190423112235 63 94 16.0 25.0 0.00 0.04 0.01 63 994.6
20190423111735 63 112 13.0 21.0 0.00 0.04 0.01 65 994.6
20190423111235 63 114 12.0 22.0 0.00 0.04 0.01 64 994.6
20190423110736 63 112 14.0 22.0 0.00 0.04 0.01 64 994.6
20190423110235 63 88 13.0 25.0 0.00 0.04 0.01 64 994.5
20190423105735 63 85 12.0 20.0 0.00 0.04 0.01 65 994.6
20190423105235 63 103 12.0 20.0 0.00 0.04 0.01 68 994.5
20190423104735 62 86 9.0 16.0 0.00 0.04 0.01 70 994.7
20190423104235 62 85 10.0 18.0 0.00 0.04 0.01 71 994.6
20190423103736 62 85 6.0 15.0 0.00 0.04 0.01 74 994.6
20190423103236 61 76 9.0 14.0 0.00 0.04 0.01 75 994.7
20190423102735 61 74 7.0 13.0 0.00 0.04 0.01 76 994.7
20190423102236 60 73 7.0 12.0 0.00 0.04 0.01 75 994.7
20190423101752 60 80 7.0 14.0 0.00 0.04 0.01 77 994.8
20190423101235 59 82 7.0 15.0 0.00 0.04 0.01 77 994.8
20190423100736 59 86 8.0 16.0 0.00 0.04 0.01 78 994.8
20190423100236 59 86 9.0 16.0 0.00 0.04 0.01 78 994.8
20190423095735 58 69 8.0 14.0 0.00 0.04 0.01 79 994.9
20190423095236 58 65 8.0 14.0 0.00 0.04 0.01 80 995.0
20190423094735 58 78 10.0 15.0 0.00 0.04 0.01 80 995.0
20190423094236 57 88 9.0 16.0 0.00 0.04 0.01 80 995.0
20190423093736 57 81 10.0 14.0 0.00 0.04 0.01 80 995.1
20190423092736 57 65 8.0 14.0 0.00 0.04 0.01 81 995.1
20190423092236 57 77 8.0 13.0 0.00 0.04 0.01 82 995.2
20190423091238 56 83 4.0 8.0 0.00 0.04 0.01 83 995.2
20190423090737 56 79 5.0 8.0 0.00 0.04 0.01 83 995.2
20190423090236 56 82 4.0 13.0 0.00 0.04 0.01 83 995.2
20190423085736 56 77 7.0 12.0 0.00 0.04 0.01 83 995.2
20190423085236 55 79 6.0 9.0 0.00 0.04 0.01 83 995.2
20190423084736 55 90 2.0 7.0 0.00 0.04 0.01 83 995.2
20190423084236 55 82 5.0 8.0 0.00 0.04 0.01 83 995.4
20190423083736 55 81 3.0 9.0 0.00 0.04 0.01 83 995.4
20190423083237 55 90 5.0 12.0 0.00 0.04 0.01 83 995.4
20190423082736 55 73 2.0 8.0 0.00 0.04 0.01 83 995.3
20190423082237 55 69 4.0 8.0 0.00 0.04 0.01 83 995.4
20190423081737 55 70 2.0 7.0 0.00 0.04 0.01 83 995.4
20190423081237 55 78 2.0 8.0 0.00 0.04 0.01 83 995.5
20190423080736 55 77 2.0 7.0 0.00 0.04 0.01 83 995.5
20190423080236 55 82 5.0 8.0 0.00 0.04 0.01 83 995.6
20190423075737 55 78 2.0 9.0 0.00 0.04 0.01 83 995.6
20190423075237 55 83 2.0 8.0 0.00 0.04 0.01 84 995.6
20190423074737 54 75 3.0 8.0 0.00 0.04 0.01 84 995.6
20190423074237 54 81 4.0 8.0 0.00 0.04 0.01 84 995.7
20190423073737 54 72 5.0 9.0 0.00 0.04 0.01 84 995.7
20190423073237 54 80 5.0 12.0 0.00 0.04 0.01 84 995.9
20190423072738 54 72 5.0 13.0 0.00 0.04 0.01 83 995.9
20190423072237 54 80 5.0 9.0 0.00 0.04 0.01 84 996.1
20190423071737 54 63 5.0 9.0 0.00 0.04 0.01 84 996.2
20190423071236 54 70 6.0 13.0 0.00 0.04 0.01 84 996.2
20190423070737 54 73 6.0 12.0 0.00 0.04 0.01 84 996.2
20190423070237 54 77 5.0 9.0 0.00 0.04 0.01 84 996.2
20190423065737 54 71 5.0 9.0 0.00 0.04 0.01 84 996.2
20190423065237 54 85 6.0 12.0 0.00 0.04 0.01 84 996.2
20190423064737 54 89 6.0 12.0 0.00 0.04 0.01 84 996.2
20190423064237 54 90 6.0 14.0 0.00 0.04 0.01 84 996.2
20190423063737 54 80 7.0 12.0 0.00 0.04 0.01 84 996.1
20190423063237 54 70 7.0 14.0 0.00 0.04 0.01 84 996.1
20190423062737 54 73 10.0 16.0 0.00 0.04 0.01 84 996.2
20190423061738 53 91 8.0 15.0 0.00 0.04 0.01 84 996.2
20190423061238 53 69 7.0 14.0 0.00 0.04 0.01 85 996.1
20190423060737 53 90 8.0 14.0 0.00 0.04 0.01 85 996.0
20190423060238 53 74 6.0 14.0 0.00 0.04 0.01 85 996.1
20190423055737 53 85 9.0 14.0 0.00 0.04 0.01 85 996.1
20190423055238 53 70 6.0 14.0 0.00 0.04 0.01 85 996.0
20190423054737 53 86 7.0 15.0 0.00 0.04 0.01 85 996.1
20190423054238 53 77 9.0 14.0 0.00 0.04 0.01 85 996.3
20190423053738 53 83 9.0 16.0 0.00 0.04 0.01 85 996.3
20190423053238 53 85 6.0 12.0 0.00 0.04 0.01 85 996.3
20190423052738 53 78 3.0 8.0 0.00 0.04 0.01 85 996.1
20190423052238 53 69 4.0 8.0 0.00 0.04 0.01 85 996.1
20190423051738 53 58 4.0 12.0 0.00 0.04 0.01 85 996.2
20190423051238 52 90 3.0 8.0 0.00 0.04 0.01 85 996.2
20190423050738 52 90 3.0 12.0 0.00 0.04 0.01 85 996.2
20190423050238 52 79 4.0 13.0 0.00 0.04 0.01 85 996.2
20190423045738 52 70 6.0 13.0 0.00 0.04 0.01 85 996.3
20190423045238 52 80 5.0 12.0 0.00 0.04 0.01 85 996.4
20190423044738 52 81 2.0 8.0 0.00 0.04 0.01 85 996.4
20190423044238 52 73 5.0 8.0 0.00 0.04 0.01 85 996.5
20190423043738 52 91 4.0 7.0 0.00 0.04 0.01 85 996.6
20190423043239 52 82 3.0 7.0 0.00 0.04 0.01 85 996.7
20190423042738 52 76 4.0 7.0 0.00 0.04 0.01 85 996.6
20190423042238 52 74 4.0 9.0 0.00 0.04 0.01 85 996.5
20190423041738 52 82 2.0 9.0 0.00 0.04 0.01 85 996.5
20190423041238 52 60 7.0 12.0 0.00 0.04 0.01 85 996.6
20190423040739 52 75 5.0 12.0 0.00 0.04 0.01 85 996.6
20190423040239 52 72 3.0 12.0 0.00 0.04 0.01 86 996.6
20190423035738 52 50 2.0 9.0 0.00 0.04 0.01 86 996.6
20190423035238 52 72 3.0 7.0 0.00 0.04 0.01 86 996.7
20190423034739 52 70 2.0 6.0 0.00 0.04 0.01 86 996.7
20190423034239 52 136 1.0 5.0 0.00 0.04 0.01 86 996.9
20190423033739 52 107 1.0 5.0 0.00 0.04 0.01 86 997.0
20190423033239 52 85 2.0 6.0 0.00 0.04 0.01 86 997.1
20190423032738 52 87 1.0 5.0 0.00 0.04 0.01 86 997.2
20190423032238 52 73 1.0 2.0 0.00 0.04 0.01 86 997.3
20190423031739 52 72 1.0 5.0 0.00 0.04 0.01 86 997.3
20190423031239 52 74 1.0 6.0 0.00 0.04 0.01 86 997.2
20190423030739 52 57 1.0 6.0 0.00 0.04 0.01 86 997.2
20190423030239 52 85 2.0 7.0 0.01 0.04 0.01 86 997.3
20190423025739 52 73 2.0 6.0 0.01 0.04 0.01 86 997.4
20190423025239 52 82 2.0 7.0 0.01 0.04 0.01 86 997.4
20190423024739 52 78 0.0 2.0 0.01 0.04 0.01 86 997.5
20190423024239 52 95 0.0 6.0 0.01 0.04 0.01 86 997.5
20190423023739 52 89 1.0 5.0 0.01 0.04 0.01 87 997.5
20190423023240 52 83 1.0 5.0 0.01 0.04 0.01 87 997.6
20190423022740 52 47 0.0 6.0 0.01 0.04 0.01 87 997.6
20190423022240 52 87 2.0 6.0 0.01 0.04 0.01 87 997.7
20190423021740 52 67 1.0 6.0 0.01 0.04 0.01 87 997.7
20190423021239 52 82 2.0 7.0 0.01 0.04 0.01 87 997.8
20190423020740 52 73 2.0 6.0 0.01 0.04 0.01 87 997.9
20190423020239 52 64 1.0 6.0 0.00 0.03 0.00 87 997.8
20190423015739 52 70 2.0 6.0 0.00 0.03 0.00 87 997.8
20190423015258 52 68 2.0 6.0 0.00 0.03 0.00 87 997.8
20190423014739 52 84 2.0 6.0 0.00 0.03 0.00 87 998.0
20190423014240 52 96 1.0 2.0 0.00 0.03 0.00 87 998.0
20190423013740 52 1 0.0 2.0 0.00 0.03 0.00 87 998.0
20190423013240 52 325 0.0 2.0 0.00 0.03 0.00 87 998.0
20190423012740 52 80 2.0 6.0 0.00 0.03 0.00 87 998.1
20190423012240 52 85 1.0 2.0 0.00 0.03 0.00 87 998.1
20190423011741 52 35 0.0 5.0 0.00 0.03 0.00 87 998.3
20190423011242 52 92 1.0 6.0 0.00 0.03 0.00 88 998.4
20190423010743 52 83 3.0 8.0 0.00 0.03 0.00 88 998.5
20190423010240 52 77 6.0 8.0 0.00 0.03 0.00 88 998.6
20190423005740 52 79 1.0 6.0 0.00 0.03 0.00 88 998.5
20190423005240 52 82 2.0 6.0 0.00 0.03 0.00 88 998.6
20190423004740 52 87 2.0 6.0 0.00 0.03 0.00 88 998.6
20190423004240 52 81 4.0 6.0 0.00 0.03 0.00 88 998.7
20190423003742 52 89 4.0 7.0 0.00 0.03 0.00 88 998.6
20190423003240 52 83 2.0 5.0 0.00 0.03 0.00 88 998.6
20190423002740 52 84 2.0 6.0 0.00 0.03 0.00 88 998.6
20190423002240 52 80 1.0 5.0 0.00 0.03 0.00 88 998.5
20190423001740 52 81 1.0 5.0 0.00 0.03 0.00 88 998.5
20190423001240 52 76 1.0 6.0 0.00 0.03 0.00 88 998.6
20190423000741 52 80 2.0 6.0 0.00 0.03 0.00 88 998.6
20190423000241 52 85 1.0 6.0 0.00 0.03 0.00 88 998.7
20190422235740 52 84 0.0 0.0 0.00 0.03 0.00 88 998.7
20190422235241 52 75 0.0 0.0 0.00 0.03 0.00 88 998.7
20190422234740 52 89 0.0 0.0 0.00 0.03 0.00 88 998.7
20190422234240 52 75 0.0 0.0 0.00 0.03 0.00 88 998.7
20190422233741 52 84 0.0 0.0 0.00 0.03 0.00 88 998.7
20190422233241 52 84 0.0 0.0 0.00 0.03 0.00 88 998.7
20190422232741 52 84 0.0 0.0 0.00 0.03 0.00 88 998.8
20190422232241 52 84 0.0 2.0 0.00 0.03 0.00 88 998.9
20190422231741 52 84 2.0 6.0 0.00 0.03 0.00 88 999.0
20190422231240 52 85 1.0 5.0 0.00 0.03 0.00 88 998.9
20190422230803 52 93 2.0 5.0 0.00 0.03 0.00 88 998.9
20190422230241 52 98 3.0 6.0 0.00 0.03 0.00 88 998.9
20190422225741 52 83 3.0 6.0 0.00 0.03 0.03 88 998.9
20190422225241 52 90 2.0 6.0 0.00 0.03 0.03 88 998.9
20190422224741 52 92 3.0 8.0 0.00 0.03 0.03 88 999.0
20190422224242 52 96 3.0 6.0 0.00 0.03 0.03 88 999.0
20190422223742 52 93 3.0 8.0 0.00 0.03 0.03 88 999.1
20190422223241 52 113 3.0 7.0 0.00 0.03 0.03 88 999.1
20190422222742 52 89 2.0 6.0 0.00 0.03 0.03 88 999.1
20190422222242 53 96 2.0 6.0 0.00 0.03 0.03 88 999.0
20190422221742 53 110 2.0 6.0 0.00 0.03 0.03 88 999.0
20190422221242 53 128 3.0 6.0 0.00 0.03 0.03 88 999.0
20190422220741 53 128 2.0 6.0 0.00 0.03 0.03 88 998.9
20190422220242 53 108 1.0 5.0 0.00 0.03 0.03 88 998.9
20190422215742 53 114 1.0 5.0 0.00 0.03 0.03 88 998.8
20190422215242 53 92 2.0 7.0 0.00 0.03 0.03 88 998.8
20190422214742 53 89 3.0 7.0 0.00 0.03 0.03 88 998.8
20190422214242 53 80 5.0 8.0 0.00 0.03 0.03 88 998.8
20190422213742 53 83 5.0 8.0 0.00 0.03 0.03 88 998.8
20190422213241 53 83 2.0 6.0 0.00 0.03 0.03 88 998.7
20190422212742 53 81 0.0 5.0 0.00 0.03 0.03 88 998.8
20190422212242 53 85 2.0 5.0 0.00 0.03 0.03 88 998.9
20190422211742 53 87 1.0 5.0 0.00 0.03 0.03 88 999.1
20190422211242 53 92 2.0 6.0 0.00 0.03 0.03 88 999.3
20190422210741 53 89 2.0 6.0 0.00 0.03 0.03 88 999.3
20190422210242 53 104 3.0 7.0 0.01 0.03 0.03 87 999.5
20190422205743 53 110 5.0 8.0 0.01 0.03 0.03 87 999.6
20190422205242 53 115 6.0 8.0 0.02 0.03 0.03 87 999.6
20190422204742 53 121 5.0 7.0 0.03 0.03 0.03 87 999.5
20190422204242 53 131 3.0 7.0 0.03 0.03 0.03 87 999.5
20190422203743 53 155 4.0 7.0 0.03 0.03 0.03 87 999.4
20190422203242 53 149 3.0 6.0 0.03 0.03 0.03 87 999.5
20190422202743 54 147 3.0 6.0 0.03 0.03 0.03 87 999.5
20190422202243 54 139 1.0 6.0 0.03 0.03 0.03 87 999.5
20190422201742 54 145 0.0 2.0 0.03 0.03 0.03 87 999.4
20190422201242 54 122 2.0 6.0 0.03 0.03 0.03 86 999.3
20190422200742 54 114 2.0 6.0 0.03 0.03 0.03 86 999.3
20190422200243 54 132 5.0 8.0 0.02 0.02 0.02 87 999.4
20190422195743 54 98 1.0 8.0 0.02 0.02 0.02 87 999.1
20190422195243 54 71 2.0 6.0 0.01 0.01 0.01 87 999.3
20190422194742 54 148 6.0 9.0 0.00 0.00 0.00 86 999.5
20190422194242 54 131 2.0 8.0 0.00 0.00 0.00 86 999.3
20190422193742 54 132 5.0 12.0 0.00 0.00 0.00 86 999.3
20190422193243 55 118 5.0 9.0 0.00 0.00 0.00 85 999.1
20190422192743 55 124 6.0 9.0 0.00 0.00 0.00 85 999.0
20190422192243 55 144 5.0 8.0 0.00 0.00 0.00 84 999.0
20190422191743 55 147 4.0 8.0 0.00 0.00 0.00 84 999.1
20190422191243 55 119 6.0 8.0 0.00 0.00 0.00 84 999.0
20190422190743 55 130 6.0 12.0 0.00 0.00 0.00 84 999.1
20190422190243 55 126 5.0 12.0 0.00 0.00 0.00 83 999.2
20190422185743 55 120 9.0 14.0 0.00 0.00 0.00 83 999.0
20190422185243 56 113 10.0 15.0 0.00 0.00 0.00 82 998.9
20190422184743 56 134 8.0 13.0 0.00 0.00 0.00 82 998.9
20190422184243 56 121 8.0 13.0 0.00 0.00 0.00 81 998.8
20190422183743 56 123 7.0 12.0 0.00 0.00 0.00 81 998.8
20190422183243 56 138 9.0 12.0 0.00 0.00 0.00 80 998.8
20190422182743 57 142 6.0 13.0 0.00 0.00 0.00 80 998.9
20190422182244 57 133 7.0 12.0 0.00 0.00 0.00 80 998.9
20190422181743 57 129 6.0 9.0 0.00 0.00 0.00 80 998.9
20190422181243 57 152 5.0 12.0 0.00 0.00 0.00 79 998.9
20190422180743 57 153 4.0 8.0 0.00 0.00 0.00 80 998.9
20190422180244 57 118 5.0 8.0 0.00 0.00 0.00 80 998.8
20190422175743 57 99 4.0 12.0 0.00 0.00 0.00 79 998.8
20190422175243 57 81 6.0 13.0 0.00 0.00 0.00 79 998.8
20190422174744 57 90 5.0 12.0 0.00 0.00 0.00 79 998.8
20190422174244 58 98 6.0 12.0 0.00 0.00 0.00 77 998.8
20190422173743 58 85 6.0 13.0 0.00 0.00 0.00 78 998.8
20190422173243 58 90 7.0 12.0 0.00 0.00 0.00 77 998.8
20190422172744 58 89 4.0 8.0 0.00 0.00 0.00 78 998.7
20190422172243 58 96 5.0 9.0 0.00 0.00 0.00 78 998.8
20190422171744 58 90 5.0 9.0 0.00 0.00 0.00 77 998.8
20190422171244 58 92 5.0 8.0 0.00 0.00 0.00 77 998.9
20190422170744 58 114 3.0 14.0 0.00 0.00 0.00 77 998.9
20190422170244 58 87 4.0 9.0 0.00 0.00 0.00 78 999.0